Location: Cheyres
(46.8153°N, 6.7877°E)
Time: 14:12:57
(UTC+00:00)

Cosmos 1733 Rocket - Pass Details

Date: 11 May 2021
Orbit: 603 x 628 km, 82.5° (Epoch: 19 June)

Event Time Altitude Azimuth Distance (km) Brightness Sun altitude
Rises 21:20:54 0° 0° (N) 2,873 7.5 -18.9°
Reaches altitude 10° 21:23:25 10° 13° (NNE) 1,962 6.2 -19.2°
Maximum altitude 21:27:07 27° 72° (ENE) 1,181 4.4 -19.5°
Enters shadow 21:27:50 25° 89° (E) 1,218 4.3 -19.5°
